Location: Dodge City Community College Clyde Tombaugh Astronomy Center
(37.7756°N, 100.0412°W)
Time: 07:33:17
(UTC+00:00)

N. Korean satellite - Pass Details

Date: 11 December 2022
Orbit: 408 x 444 km, 97.3° (Epoch: 27 January)

Event Time Altitude Azimuth Distance (km) Brightness Sun altitude
Rises 11:16:29 0° 26° (NNE) 2,472 10.4 -28.6°
Reaches altitude 10° 11:18:52 10° 42° (NE) 1,583 9.5 -28.2°
Maximum altitude 11:21:34 22° 95° (E) 1,023 8.9 -27.6°
Drops below altitude 10° 11:24:13 10° 149° (SSE) 1,545 9.6 -27.1°
Sets 11:26:30 0° 165° (SSE) 2,395 10.4 -26.7°
